timestamp,surface_pressure_avg,surface_temp_avg,battery_voltage,lat,long
2020-01-26 00:09:01+00:00,326.1979,0.4,12.65,47.84626,-54.09684
2020-01-26 00:19:01+00:00,326.3931,0.4,12.65,47.84626,-54.09684
2020-01-26 00:29:01+00:00,327.6479,0.4,12.65,47.84626,-54.09684
2020-01-26 00:39:01+00:00,324.7029,0.36,12.65,47.84626,-54.09684
2020-01-26 00:49:01+00:00,319.7413,0.3,12.65,47.84626,-54.09684
2020-01-26 00:59:01+00:00,319.5246,0.25,12.65,47.84626,-54.09684
2020-01-26 01:09:01+00:00,322.4214,0.2,12.65,47.84626,-54.09684
2020-01-26 01:19:01+00:00,320.8814,0.17,12.57,47.84626,-54.09684
2020-01-26 01:29:01+00:00,314.6547,0.1,12.57,47.84626,-54.09684
2020-01-26 01:39:01+00:00,315.3047,0.1,12.57,47.84626,-54.09684
2020-01-26 01:49:01+00:00,314.488,0.09,12.57,47.84626,-54.09684
2020-01-26 01:59:01+00:00,308.0897,0.0,12.57,47.84626,-54.09684
2020-01-26 02:09:01+00:00,300.403,-0.05,12.57,47.84626,-54.09684
2020-01-26 02:19:01+00:00,300.6579,-0.09,12.57,47.84626,-54.09684
2020-01-26 02:29:01+00:00,297.9597,-0.1,12.57,47.84626,-54.09684
2020-01-26 02:39:01+00:00,292.1647,-0.1,12.57,47.84626,-54.09684
2020-01-26 02:49:01+00:00,285.6331,-0.1,12.57,47.84626,-54.09684
2020-01-26 02:59:01+00:00,283.6947,-0.2,12.57,47.84626,-54.09684
2020-01-26 03:09:01+00:00,278.8431,-0.18,12.57,47.84626,-54.09684
2020-01-26 03:19:01+00:00,271.4097,-0.18,12.49,47.84626,-54.09684
2020-01-26 03:29:01+00:00,267.6814,-0.14,12.49,47.84626,-54.09684
2020-01-26 03:39:01+00:00,262.5147,-0.1,12.49,47.84626,-54.09684
2020-01-26 03:49:01+00:00,256.0814,-0.06,12.49,47.84626,-54.09684
2020-01-26 03:59:01+00:00,243.2164,0.0,12.49,47.84626,-54.09684
2020-01-26 04:09:01+00:00,232.1298,0.0,12.49,47.84626,-54.09684
2020-01-26 04:19:01+00:00,225.2164,0.0,12.49,47.84626,-54.09684
2020-01-26 04:29:01+00:00,219.5331,0.1,12.49,47.84626,-54.09684
2020-01-26 04:39:01+00:00,208.3231,0.1,12.49,47.84626,-54.09684
2020-01-26 04:49:01+00:00,199.4915,0.0,12.49,47.84626,-54.09684
2020-01-26 04:59:01+00:00,196.8998,0.06,12.49,47.84626,-54.09684
2020-01-26 05:09:01+00:00,192.1031,0.1,12.49,47.84626,-54.09684
2020-01-26 05:19:01+00:00,185.6098,0.2,12.49,47.84626,-54.09684
2020-01-26 05:29:01+00:00,183.9465,0.29,12.49,47.84626,-54.09684
2020-01-26 05:39:01+00:00,184.6715,0.33,12.49,47.84626,-54.09684
2020-01-26 05:49:01+00:00,177.8782,0.3,12.49,47.84626,-54.09684
2020-01-26 05:59:01+00:00,173.8432,0.2,12.49,47.84626,-54.09684
2020-01-26 06:09:01+00:00,176.5081,0.2,12.49,47.84626,-54.09684
2020-01-26 06:19:01+00:00,176.4499,0.27,12.41,47.84626,-54.09684
2020-01-26 06:29:01+00:00,173.1997,0.3,12.41,47.84626,-54.09684
2020-01-26 06:39:01+00:00,173.6848,0.3,12.41,47.84626,-54.09684
2020-01-26 06:49:01+00:00,179.6065,0.3,12.41,47.84626,-54.09684
2020-01-26 06:59:01+00:00,185.0698,0.35,12.41,47.84626,-54.09684
2020-01-26 07:09:01+00:00,186.6514,0.39,12.41,47.84626,-54.09684
2020-01-26 07:19:01+00:00,187.0015,0.4,12.41,47.84626,-54.09684
2020-01-26 07:29:01+00:00,191.8798,0.4,12.41,47.84626,-54.09684
2020-01-26 07:39:01+00:00,196.7464,0.4,12.41,47.84626,-54.09684
2020-01-26 07:49:01+00:00,199.8648,0.4,12.41,47.84626,-54.09684
2020-01-26 07:59:01+00:00,208.0164,0.47,12.41,47.84626,-54.09684
2020-01-26 08:09:01+00:00,214.4398,0.5,12.41,47.84626,-54.09684
2020-01-26 08:19:01+00:00,216.8115,0.5,12.41,47.84626,-54.09684
2020-01-26 08:29:01+00:00,221.1348,0.4,12.41,47.84626,-54.09684
2020-01-26 08:39:01+00:00,232.3764,0.2,12.41,47.84626,-54.09684
2020-01-26 08:49:01+00:00,237.8698,0.2,12.41,47.84626,-54.09684
2020-01-26 08:59:01+00:00,239.3214,0.0,12.41,47.84626,-54.09684
2020-01-26 09:09:01+00:00,244.8531,-0.2,12.41,47.84626,-54.09684
2020-01-26 09:19:01+00:00,251.6697,-0.3,12.41,47.84626,-54.09684
2020-01-26 09:29:01+00:00,257.1813,-0.4,12.41,47.84626,-54.09684
2020-01-26 09:39:01+00:00,260.7081,-0.4,12.41,47.84626,-54.09684
2020-01-26 09:49:01+00:00,270.2631,-0.41,12.41,47.84626,-54.09684
2020-01-26 09:59:01+00:00,274.6914,-0.42,12.41,47.84626,-54.09684
2020-01-26 10:09:01+00:00,279.2081,-0.5,12.41,47.84626,-54.09684
2020-01-26 10:19:01+00:00,289.1664,-0.51,12.41,47.84626,-54.09684
2020-01-26 10:29:01+00:00,302.043,-0.5,12.41,47.84626,-54.09684
2020-01-26 10:39:01+00:00,304.83299999999997,-0.6,12.41,47.84626,-54.09684
2020-01-26 10:49:01+00:00,309.7363,-0.7,12.41,47.84626,-54.09684
2020-01-26 10:59:01+00:00,319.3996,-0.7,12.41,47.84626,-54.09684
2020-01-26 11:09:01+00:00,331.0729,-0.7,12.41,47.84626,-54.09684
2020-01-26 11:19:01+00:00,334.9296,-0.78,12.41,47.84626,-54.09684
2020-01-26 11:29:01+00:00,340.4263,-0.8,12.41,47.84626,-54.09684
2020-01-26 11:39:01+00:00,350.2696,-0.8,12.41,47.84626,-54.09684
2020-01-26 11:49:01+00:00,356.1897,-0.8,12.41,47.84626,-54.09684
2020-01-26 11:59:01+00:00,357.923,-0.8,12.41,47.84626,-54.09684
2020-01-26 12:09:01+00:00,357.3429,-0.8,12.41,47.84626,-54.09684
2020-01-26 12:19:01+00:00,362.6945,-0.76,14.32,47.84626,-54.09684
2020-01-26 12:29:01+00:00,367.2314,-0.7,14.32,47.84626,-54.09684
2020-01-26 12:39:01+00:00,363.4779,-0.73,14.32,47.84626,-54.09684
2020-01-26 12:49:01+00:00,364.3912,-0.7,14.32,47.84626,-54.09684
2020-01-26 12:59:01+00:00,364.1278,-0.7,14.32,47.84626,-54.09684
2020-01-26 13:09:01+00:00,365.0614,-0.7,14.32,47.84626,-54.09684
2020-01-26 13:19:01+00:00,363.6729,-0.7,14.96,47.84626,-54.09684
2020-01-26 13:29:01+00:00,360.3762,-0.7,14.96,47.84626,-54.09684
2020-01-26 13:39:01+00:00,359.6145,-0.69,14.96,47.84626,-54.09684
2020-01-26 13:49:01+00:00,356.8229,-0.66,14.96,47.84626,-54.09684
2020-01-26 13:59:01+00:00,352.3046,-0.6,14.96,47.84626,-54.09684
2020-01-26 14:09:01+00:00,348.1263,-0.6,14.96,47.84626,-54.09684
2020-01-26 14:19:01+00:00,343.9863,-0.6,14.72,47.84626,-54.09684
2020-01-26 14:29:01+00:00,345.2444,-0.7,14.72,47.84626,-54.09684
2020-01-26 14:39:01+00:00,344.2913,-0.7,14.72,47.84626,-54.09684
2020-01-26 14:49:01+00:00,335.7030000000001,-0.7,14.72,47.84626,-54.09684
2020-01-26 14:59:01+00:00,335.8862,-0.69,14.72,47.84626,-54.09684
2020-01-26 15:09:01+00:00,339.1579,-0.68,14.72,47.84626,-54.09684
2020-01-26 15:19:01+00:00,329.3213,-0.7,14.88,47.84626,-54.09684
2020-01-26 15:29:01+00:00,314.1764,-0.7,14.88,47.84626,-54.09684
2020-01-26 15:39:01+00:00,311.3463,-0.66,14.88,47.84626,-54.09684
2020-01-26 15:49:01+00:00,300.6014,-0.6,14.88,47.84626,-54.09684
2020-01-26 15:59:01+00:00,288.1747,-0.6,14.88,47.84626,-54.09684
2020-01-26 16:09:01+00:00,285.7679,-0.6,14.88,47.84626,-54.09684
2020-01-26 16:19:01+00:00,284.8781,-0.54,14.72,47.84626,-54.09684
2020-01-26 16:29:01+00:00,272.4514,-0.6,14.72,47.84626,-54.09684
2020-01-26 16:39:01+00:00,259.4131,-0.56,14.72,47.84626,-54.09684
2020-01-26 16:49:01+00:00,251.2764,-0.51,14.72,47.84626,-54.09684
2020-01-26 16:59:01+00:00,243.1114,-0.5,14.72,47.84626,-54.09684
2020-01-26 17:09:01+00:00,232.2764,-0.5,14.72,47.84626,-54.09684
2020-01-26 17:19:01+00:00,222.8364,-0.5,14.48,47.84626,-54.09684
2020-01-26 17:29:01+00:00,212.0331,-0.48,14.48,47.84626,-54.09684
2020-01-26 17:39:01+00:00,195.6281,-0.48,14.48,47.84626,-54.09684
2020-01-26 17:49:01+00:00,185.3682,-0.45,14.48,47.84626,-54.09684
2020-01-26 17:59:01+00:00,186.3915,-0.41,14.48,47.84626,-54.09684
2020-01-26 18:09:01+00:00,183.9048,-0.4,14.48,47.84626,-54.09684
2020-01-26 18:19:01+00:00,179.0831,-0.4,14.48,47.84626,-54.09684
2020-01-26 18:29:01+00:00,181.2731,-0.4,14.48,47.84626,-54.09684
2020-01-26 18:39:01+00:00,185.4281,-0.4,14.48,47.84626,-54.09684
2020-01-26 18:49:01+00:00,177.3365,-0.4,14.48,47.84626,-54.09684
2020-01-26 18:59:01+00:00,175.2698,-0.4,14.48,47.84626,-54.09684
2020-01-26 19:09:01+00:00,185.0482,-0.4,14.48,47.84626,-54.09684
2020-01-26 19:19:01+00:00,185.6548,-0.34,14.08,47.84626,-54.09684
2020-01-26 19:29:01+00:00,180.4681,-0.3,14.08,47.84626,-54.09684
2020-01-26 19:39:01+00:00,188.6631,-0.3,14.08,47.84626,-54.09684
2020-01-26 19:49:01+00:00,199.5998,-0.2,14.08,47.84626,-54.09684
2020-01-26 19:59:01+00:00,199.1082,-0.1,14.08,47.84626,-54.09684
2020-01-26 20:09:01+00:00,206.3632,-0.0,14.08,47.84626,-54.09684
2020-01-26 20:19:01+00:00,214.0315,0.01,13.68,47.84626,-54.09684
2020-01-26 20:29:01+00:00,213.1381,0.1,13.68,47.84626,-54.09684
2020-01-26 20:39:01+00:00,210.9898,0.2,13.68,47.84626,-54.09684
2020-01-26 20:49:01+00:00,215.0248,0.27,13.68,47.84626,-54.09684
2020-01-26 20:59:01+00:00,221.0631,0.3,13.68,47.84626,-54.09684
2020-01-26 21:09:01+00:00,220.1448,0.31,13.68,47.84626,-54.09684
2020-01-26 21:19:01+00:00,224.5198,0.35,13.21,47.84626,-54.09684
2020-01-26 21:29:01+00:00,233.0731,0.33,13.21,47.84626,-54.09684
2020-01-26 21:39:01+00:00,239.7897,0.35,13.21,47.84626,-54.09684
2020-01-26 21:49:01+00:00,241.9214,0.38,13.21,47.84626,-54.09684
2020-01-26 21:59:01+00:00,248.8214,0.39,13.21,47.84626,-54.09684
2020-01-26 22:09:01+00:00,258.4164,0.37,13.21,47.84626,-54.09684
2020-01-26 22:19:01+00:00,264.3014,0.37,12.89,47.84626,-54.09684
2020-01-26 22:29:01+00:00,264.653,0.39,12.89,47.84626,-54.09684
2020-01-26 22:39:01+00:00,270.1114,0.39,12.89,47.84626,-54.09684
2020-01-26 22:49:01+00:00,279.4481,0.38,12.89,47.84626,-54.09684
2020-01-26 22:59:01+00:00,288.3131,0.39,12.89,47.84626,-54.09684
2020-01-26 23:09:01+00:00,297.9313,0.4,12.89,47.84626,-54.09684
2020-01-26 23:19:01+00:00,307.1429,0.4,12.65,47.84626,-54.09684
2020-01-26 23:29:01+00:00,311.7513,0.4,12.65,47.84626,-54.09684
2020-01-26 23:39:01+00:00,318.198,0.48,12.65,47.84626,-54.09684
2020-01-26 23:49:01+00:00,322.6263,0.52,12.65,47.84626,-54.09684
2020-01-26 23:59:01+00:00,326.3547,0.59,12.65,47.84626,-54.09684
